This demonstration page uses our WeatherBlox Daily Observations layout. Learn more.

Left ArrowRight Arrow

39.08367, -84.50855

Hourly Observations for January 11, 2021

Temp ( °F °C ) Dew Point ( °F °C ) Humidity (%) Winds ( mph kmh ) Pressure ( in mb ) Visibility ( mi km ) Precip ( " mm )
12:53 am 00:53 Cloudy 29 -1.7 24 -4.4 82 82 ENE 3 6 30.34 1027 8 12.87472 0 0
1:53 am 01:53 Mostly Cloudy 29 -1.7 24 -4.4 82 82 Calm 30.35 1028 8 12.87472 0 0
2:53 am 02:53 Cloudy 30 -1.1 24 -4.4 79 79 Calm 30.33 1027 8 12.87472 0 0
3:05 am 03:05 Cloudy 31 -0.6 23 -5 72 72 NW 3 6 30.35 1028 10 16.0934 0 0
3:53 am 03:53 Cloudy 31 -0.6 23 -5 72 72 WNW 5 7 30.34 1027 9 14.48406 0 0
4:53 am 04:53 Cloudy 31 -0.6 23 -5 72 72 Calm 30.33 1027 10 16.0934 0 0
5:53 am 05:53 Cloudy 31 -0.6 22 -5.6 69 69 NW 5 7 30.33 1027 10 16.0934 0 0
6:53 am 06:53 Cloudy 31 -0.6 23 -5 72 72 SW 5 7 30.36 1028 9 14.48406 0 0
7:53 am 07:53 Cloudy 31 -0.6 24 -4.4 76 76 W 6 9 30.35 1028 9 14.48406 0 0
8:53 am 08:53 Cloudy 31 -0.6 23 -5 72 72 WNW 7 11 30.34 1028 8 12.87472 0 0
9:53 am 09:53 Cloudy 31 -0.6 22 -5.6 69 69 WNW 3 6 30.37 1028 9 14.48406 0 0
10:53 am 10:53 Cloudy 31 -0.6 21 -6.1 67 67 W 9 15 30.39 1029 9 14.48406 0 0
11:53 am 11:53 Cloudy 31 -0.6 21 -6.1 67 67 SW 6 9 30.35 1028 10 16.0934 0 0
12:53 pm 12:53 Cloudy 31 -0.6 21 -6.1 67 67 WSW 8 13 30.33 1027 10 16.0934 0 0
1:53 pm 13:53 Cloudy 32 0 20 -6.7 61 61 WNW 6 9 30.31 1027 10 16.0934 0 0
2:53 pm 14:53 Cloudy 32 0 20 -6.7 61 61 W 10 17 30.31 1027 10 16.0934 0 0
3:53 pm 15:53 Cloudy 31 -0.6 20 -6.7 64 64 Calm 30.32 1027 10 16.0934 0 0
4:53 pm 16:53 Mostly Cloudy 31 -0.6 20 -6.7 64 64 W 5 7 30.31 1027 10 16.0934 0 0
5:53 pm 17:53 Mostly Clear 28 -2.2 20 -6.7 72 72 WSW 5 7 30.31 1027 10 16.0934 0 0
6:53 pm 18:53 Clear 27 -2.8 20 -6.7 75 75 NW 5 7 30.32 1027 10 16.0934 0 0
7:53 pm 19:53 Clear 25 -3.9 19 -7.2 78 78 Calm 30.32 1027 10 16.0934 0 0
8:53 pm 20:53 Clear 23 -5 19 -7.2 85 85 SSW 5 7 30.31 1026 9 14.48406 0 0
9:53 pm 21:53 Clear 23 -5 19 -7.2 85 85 SSW 3 6 30.31 1026 9 14.48406 0 0
10:53 pm 22:53 Clear 24 -4.4 19 -7.2 81 81 SSW 5 7 30.3 1026 8 12.87472 0 0
11:28 pm 23:28 Mostly Cloudy 23 -5 19 -7.2 85 85 SW 5 7 30.33 1027 8 12.87472 0 0
11:53 pm 23:53 Cloudy 26 -3.3 21 -6.1 81 81 WSW 8 13 30.3 1026 8 12.87472 0 0

Powered by AerisWeather